{"data":{"norad_id":68262,"epoch":"2026-09-19T22:33:19.721376Z","epoch_age_seconds":100207,"freshness":"FRESH","line1":"1 68262U 26055A   26262.93981159  .00014803  00000+0  44825-3 0  9996","line2":"2 68262  53.1569 132.5863 0001137 101.7606 258.3524 15.34408682 29737","mean_motion":15.34408682,"eccentricity":0.0001137,"inclination_deg":53.1569,"raan_deg":132.5863,"arg_perigee_deg":101.7606,"mean_anomaly_deg":258.3524,"bstar":0.00044825,"rev_number":2973,"period_min":93.847227071412,"perigee_km":461.8996349938,"apogee_km":463.45523619646,"semimajor_km":6840.8144355951,"source":"CELESTRAK","updated_at":"2026-09-20T09:00:43.845403Z"}}